Location: GMARS
(34.2910°N, 116.3838°W)
Time: 16:46:43
(UTC-08:00)

Daily predictions for brighter satellites

Satellite Brightness Start Highest point End
(mag) Time Altitude Azimuth Time Altitude Azimuth Time Altitude Azimuth
MOS 1 4.4 16:52:38 10° SSE 16:58:07 54° ENE 17:03:36 10° N
Cosmos 158 Rocket 4.0 16:53:38 10° NNW 16:59:00 80° ENE 17:04:11 10° SSE
Cosmos 1484 Rocket 4.2 17:00:59 10° ESE 17:03:22 16° ENE 17:05:45 10° NNE
SL-8 R/B 3.9 16:58:43 10° WSW 17:03:28 70° NW 17:08:14 10° NE
Meteor 1-5 Rocket 4.2 16:59:43 10° N 17:05:11 83° E 17:10:49 10° S
Cosmos 2341 Rocket 4.5 17:01:23 10° NNW 17:07:32 67° W 17:13:41 10° S
Cosmos 2082 Rocket 3.8 17:08:36 10° NNE 17:11:24 14° NE 17:14:13 10° E
Cosmos 1833 Rocket 4.4 17:10:48 10° NNE 17:12:46 12° NE 17:14:44 10° ENE
Cosmos 1544 Rocket 3.6 17:11:28 10° N 17:15:54 66° E 17:20:20 10° SSE
COSMO-SKYMED 1 3.3 17:13:39 10° NNE 17:17:35 33° E 17:21:29 10° SSE
Cosmos 1500 4.4 17:14:42 10° NNE 17:17:46 22° ENE 17:20:49 10° SE
CZ-3B DEB 2.6 17:18:58 10° WSW 17:22:07 44° NNW 17:29:32 10° NE
Tiangong 1 0.9 17:23:48 10° WSW 17:26:48 82° SSE 17:28:54 18° ENE
Hubble Space Telescope 3.6 17:27:06 10° SW 17:29:00 13° SSW 17:30:52 10° S
Nadezhda 3 Rocket 4.3 17:25:21 10° SSE 17:31:07 44° E 17:36:58 10° NNE
Cosmos 1536 Rocket 3.5 17:27:54 10° S 17:32:20 86° E 17:36:50 10° N
Cosmos 864 Rocket 4.5 17:29:04 10° N 17:35:23 81° E 17:41:42 10° S
Okean 1 3.3 17:32:34 10° S 17:36:36 87° E 17:40:40 10° N
NOSS 2-1 (E) 4.3 17:34:41 10° S 17:37:58 27° ESE 17:39:32 21° ENE
GEOS 3 Rocket 4.5 17:34:42 12° E 17:38:30 27° NE 17:42:43 10° N
Cosmos 1812 3.5 17:36:09 10° SSW 17:39:54 54° W 17:43:42 10° N
YAOGAN 1 3.1 17:35:55 10° S 17:40:11 63° WSW 17:44:29 10° NNW
SPOT 3 Rocket 4.3 17:38:52 10° S 17:43:57 57° W 17:49:03 10° NNW
Cosmos 1025 Rocket 4.2 17:40:36 10° SE 17:43:59 22° E 17:44:25 22° E
COSMOS 2487 3.3 17:43:25 10° N 17:46:35 29° ENE 17:47:27 25° E
SKYMED 3 4.5 17:43:20 10° NNE 17:47:41 78° ESE 17:52:00 10° S
Cosmos 921 Rocket 3.3 17:45:09 10° S 17:49:08 43° E 17:51:26 22° NE
Cosmos 1346 Rocket 2.7 17:48:24 10° S 17:52:19 89° ENE 17:56:13 10° N
Meteor 2-21 Rocket 4.5 17:52:58 10° N 17:59:02 57° E 18:05:03 10° SSE
IDEFIX/ARIANE 42P 4.2 18:00:08 10° SSW 18:04:53 36° W 18:09:39 10° NNW
Cosmos 1455 Rocket 4.5 18:01:07 10° NNW 18:05:14 40° W 18:09:21 10° SSW
SKYMED 2 4.0 18:01:24 10° N 18:05:42 63° WNW 18:09:58 10° SSW
Okean 1-7 Rocket 3.5 18:01:47 10° S 18:06:16 71° E 18:09:43 17° NNE
Cosmos 375 4.2 18:03:37 10° NNW 18:07:45 60° NE 18:08:56 39° ESE
FALCON 9 R/B 3.6 17:44:37 10° WSW 18:11:31 86° S 18:15:38 31° E
Cosmos 2297 3.7 18:06:59 10° SSW 18:12:38 81° WNW 18:17:03 17° NNE
OTV 4 2.7 18:10:41 10° W 18:13:05 22° SSW 18:14:23 17° S
Delta 2 Rocket 3.2 18:10:27 10° WSW 18:14:19 84° SSE 18:15:08 57° E
Chunghua 1 4.5 18:20:25 10° WSW 18:24:13 77° S 18:24:13 77° S
ATLAS 2AS CENTAUR R/B 3.7 18:17:41 10° NW 18:25:20 54° WSW 18:32:25 10° S
Cosmos 2278 Rocket 4.0 18:22:16 10° WSW 18:27:02 28° WNW 18:31:50 10° N
Cosmos 1535 Rocket 4.3 18:25:25 10° N 18:31:43 75° E 18:37:54 10° S
Intercosmos 25 3.8 18:32:28 46° SW 18:32:28 46° SW 18:35:13 10° S
Cosmos 1934 Rocket 3.9 18:26:05 10° N 18:32:12 58° E 18:38:21 10° SSE
Genesis I 3.9 18:30:43 10° NNW 18:33:33 46° NNW 18:33:33 46° NNW
Timation 2 Rocket 4.1 18:36:23 10° NNW 18:43:16 89° W 18:50:09 10° SSE
Cosmos 1743 3.6 18:44:54 46° SW 18:44:54 46° SW 18:48:00 10° S
NOAA 12 4.3 18:39:56 10° S 18:45:10 71° WSW 18:50:27 10° NNW
Cosmos 2239 Rocket 4.5 18:41:48 10° N 18:47:59 78° W 18:54:07 10° S
ATLAS 3B CENTAUR R/B 3.3 18:34:18 10° W 18:51:11 60° S 18:53:29 44° SE
METEOR-M 4.3 18:48:31 10° S 18:53:49 70° WSW 18:59:09 10° NNW
Cosmos 2082 Rocket 2.2 18:50:25 10° NNW 18:56:05 76° WSW 18:57:59 43° S
Meteor 2-8 Rocket 4.4 18:50:07 10° S 18:56:11 81° W 18:58:19 43° N
Cosmos 1833 Rocket 2.7 18:51:46 10° NNW 18:56:48 72° NNW 18:56:48 72° NNW
Cosmos 1821 Rocket 4.2 18:51:35 10° NNW 18:57:36 68° W 19:03:37 10° S
GEOS 3 Rocket 4.5 19:15:55 43° SW 19:16:18 44° WSW 19:21:11 10° NW
